Dati Storici

Data ora Umidita' aria (%) Temperatura aria (°C) Rad globale (W/m²) Gonioanemometro (°) Tacoanemometro (m/s) Pioggia (mm)
04-11-2012 06:50 94.1 % 10.875 3.213 29.066 0.832 0
04-11-2012 06:40 94.1 % 10.836 3.213 63.233 1.508 0
04-11-2012 06:30 94 % 10.832 3.239 11.683 1.296 0
04-11-2012 06:20 93.9 % 10.793 3.2 17.296 1.721 0
04-11-2012 06:10 93.8 % 10.806 3.328 25.639 1.036 0
04-11-2012 06:00 93.7 % 10.794 3.264 31.301 1.868 0
04-11-2012 05:50 93.5 % 10.778 3.239 3.664 0.809 0
04-11-2012 05:40 93.3 % 10.828 3.29 10.639 0.931 0
04-11-2012 05:30 93.1 % 10.857 3.075 37.26 1.289 0
04-11-2012 05:20 93 % 10.882 3.178 28.898 0.93 0
04-11-2012 05:10 92.7 % 10.871 3.178 44.393 1.322 0
04-11-2012 05:00 92.8 % 10.909 3.216 10.942 1.429 0
04-11-2012 04:50 92.7 % 10.86 3.204 32.763 1.502 0
04-11-2012 04:40 92.7 % 10.835 3.255 30.225 2.598 0
04-11-2012 04:30 92.5 % 10.826 3.294 18.647 1.084 0
04-11-2012 04:20 91.9 % 10.83 3.242 26.286 1.222 0
04-11-2012 04:10 91.3 % 10.913 3.127 11.525 1.214 0
04-11-2012 04:00 90.9 % 11.026 2.902 33.43 1.562 0
04-11-2012 03:50 90.7 % 11.028 3.184 35.177 2.038 0
04-11-2012 03:40 90.8 % 11.034 3.158 36.162 0.865 0

I dati sono presentati in modo automatico a scopo informativo. In seguito a verifica i dati possono subire modifiche o essere invalidati e non riportati negli archivi definitivi.